Year,Month,Day,Hour,Minute,Value (Times are PST for windspeed in km/hr)
2011,06,09,00,00,0.00
2011,06,09,00,01,0.00
2011,06,09,00,02,0.00
2011,06,09,00,03,0.40
2011,06,09,00,04,0.00
2011,06,09,00,05,0.00
2011,06,09,00,06,0.00
2011,06,09,00,07,0.00
2011,06,09,00,08,0.70
2011,06,09,00,09,0.70
2011,06,09,00,10,1.40
2011,06,09,00,11,1.50
2011,06,09,00,12,0.20
2011,06,09,00,13,0.70
2011,06,09,00,14,0.00
2011,06,09,00,15,0.20
2011,06,09,00,16,0.10
2011,06,09,00,17,0.10
2011,06,09,00,18,0.20
2011,06,09,00,19,0.00
2011,06,09,00,20,0.00
2011,06,09,00,21,0.00
2011,06,09,00,22,0.00
2011,06,09,00,23,1.00
2011,06,09,00,24,0.60
2011,06,09,00,25,1.90
2011,06,09,00,26,0.70
2011,06,09,00,27,1.80
2011,06,09,00,28,2.40
2011,06,09,00,29,2.20
2011,06,09,00,30,1.50
2011,06,09,00,31,1.90
2011,06,09,00,32,1.00
2011,06,09,00,33,0.60
2011,06,09,00,34,1.90
2011,06,09,00,35,1.00
2011,06,09,00,36,1.20
2011,06,09,00,37,1.40
2011,06,09,00,38,3.90
2011,06,09,00,39,0.90
2011,06,09,00,40,1.20
2011,06,09,00,41,3.00
2011,06,09,00,42,2.80
2011,06,09,00,43,1.80
2011,06,09,00,44,3.20
2011,06,09,00,45,2.20
2011,06,09,00,46,0.80
2011,06,09,00,47,1.40
2011,06,09,00,48,1.70
2011,06,09,00,49,1.70
2011,06,09,00,50,2.10
2011,06,09,00,51,3.50
2011,06,09,00,52,1.80
2011,06,09,00,53,2.80
2011,06,09,00,54,1.50
2011,06,09,00,55,1.60
2011,06,09,00,56,0.20
2011,06,09,00,57,1.20
2011,06,09,00,58,1.70
2011,06,09,00,59,1.20
2011,06,09,01,00,1.00
2011,06,09,01,01,0.20
2011,06,09,01,02,0.30
2011,06,09,01,03,0.00
2011,06,09,01,04,0.00
2011,06,09,01,05,0.50
2011,06,09,01,06,0.70
2011,06,09,01,07,2.70
2011,06,09,01,08,0.20
2011,06,09,01,09,2.20
2011,06,09,01,10,0.00
2011,06,09,01,11,0.40
2011,06,09,01,12,0.70
2011,06,09,01,13,1.40
2011,06,09,01,14,3.40
2011,06,09,01,15,1.90
2011,06,09,01,16,0.30
2011,06,09,01,17,1.70
2011,06,09,01,18,2.60
2011,06,09,01,19,1.90
2011,06,09,01,20,2.40
2011,06,09,01,21,0.60
2011,06,09,01,22,2.20
2011,06,09,01,23,1.00
2011,06,09,01,24,3.20
2011,06,09,01,25,3.80
2011,06,09,01,26,2.10
2011,06,09,01,27,1.10
2011,06,09,01,28,1.20
2011,06,09,01,29,0.60
2011,06,09,01,30,1.20
2011,06,09,01,31,0.00
2011,06,09,01,32,0.00
2011,06,09,01,33,0.00
2011,06,09,01,34,0.00
2011,06,09,01,35,0.00
2011,06,09,01,36,0.00
2011,06,09,01,37,0.00
2011,06,09,01,38,0.70
2011,06,09,01,39,0.10
2011,06,09,01,40,0.60
2011,06,09,01,41,0.20
2011,06,09,01,42,0.70
2011,06,09,01,43,0.90
2011,06,09,01,44,1.40
2011,06,09,01,45,2.20
2011,06,09,01,46,1.50
2011,06,09,01,47,2.20
2011,06,09,01,48,0.60
2011,06,09,01,49,1.60
2011,06,09,01,50,0.30
2011,06,09,01,51,0.70
2011,06,09,01,52,0.20
2011,06,09,01,53,1.20
2011,06,09,01,54,1.30
2011,06,09,01,55,0.30
2011,06,09,01,56,2.40
2011,06,09,01,57,0.20
2011,06,09,01,58,0.60
2011,06,09,01,59,0.10
2011,06,09,02,00,0.20
2011,06,09,02,01,2.60
2011,06,09,02,02,1.40
2011,06,09,02,03,3.60
2011,06,09,02,04,2.00
2011,06,09,02,05,0.40
2011,06,09,02,06,1.40
2011,06,09,02,07,0.30
2011,06,09,02,08,0.60
2011,06,09,02,09,0.20
2011,06,09,02,10,0.00
2011,06,09,02,11,0.30
2011,06,09,02,12,0.20
2011,06,09,02,13,0.20
2011,06,09,02,14,1.40
2011,06,09,02,15,0.80
2011,06,09,02,16,0.00
2011,06,09,02,17,0.00
2011,06,09,02,18,0.00
2011,06,09,02,19,0.00
2011,06,09,02,20,1.20
2011,06,09,02,21,0.10
2011,06,09,02,22,0.00
2011,06,09,02,23,0.30
2011,06,09,02,24,0.00
2011,06,09,02,25,1.40
2011,06,09,02,26,2.20
2011,06,09,02,27,2.40
2011,06,09,02,28,2.90
2011,06,09,02,29,0.60
2011,06,09,02,30,1.80
2011,06,09,02,31,1.60
2011,06,09,02,32,0.10
2011,06,09,02,33,0.00
2011,06,09,02,34,0.00
2011,06,09,02,35,1.10
2011,06,09,02,36,0.00
2011,06,09,02,37,0.10
2011,06,09,02,38,0.00
2011,06,09,02,39,0.00
2011,06,09,02,40,0.00
2011,06,09,02,41,0.00
2011,06,09,02,42,0.00
2011,06,09,02,43,0.00
2011,06,09,02,44,0.00
2011,06,09,02,45,0.00
2011,06,09,02,46,0.00
2011,06,09,02,47,0.00
2011,06,09,02,48,0.00
2011,06,09,02,49,0.00
2011,06,09,02,50,0.00
2011,06,09,02,51,0.00
2011,06,09,02,52,0.00
2011,06,09,02,53,0.60
2011,06,09,02,54,0.10
2011,06,09,02,55,0.30
2011,06,09,02,56,1.20
2011,06,09,02,57,0.10
2011,06,09,02,58,0.10
2011,06,09,02,59,2.10
2011,06,09,03,00,0.60
2011,06,09,03,01,0.20
2011,06,09,03,02,1.00
2011,06,09,03,03,0.00
2011,06,09,03,04,0.90
2011,06,09,03,05,0.20
2011,06,09,03,06,0.00
2011,06,09,03,07,0.00
2011,06,09,03,08,0.00
2011,06,09,03,09,0.90
2011,06,09,03,10,0.20
2011,06,09,03,11,0.20
2011,06,09,03,12,2.50
2011,06,09,03,13,1.90
2011,06,09,03,14,1.30
2011,06,09,03,15,2.30
2011,06,09,03,16,0.60
2011,06,09,03,17,0.50
2011,06,09,03,18,2.30
2011,06,09,03,19,0.40
2011,06,09,03,20,1.70
2011,06,09,03,21,1.90
2011,06,09,03,22,2.30
2011,06,09,03,23,2.30
2011,06,09,03,24,2.30
2011,06,09,03,25,2.20
2011,06,09,03,26,1.90
2011,06,09,03,27,1.00
2011,06,09,03,28,0.20
2011,06,09,03,29,0.00
2011,06,09,03,30,0.50
2011,06,09,03,31,2.10
2011,06,09,03,32,1.20
2011,06,09,03,33,0.60
2011,06,09,03,34,1.10
2011,06,09,03,35,0.00
2011,06,09,03,36,0.00
2011,06,09,03,37,0.20
2011,06,09,03,38,1.60
2011,06,09,03,39,1.50
2011,06,09,03,40,0.30
2011,06,09,03,41,0.80
2011,06,09,03,42,0.00
2011,06,09,03,43,0.90
2011,06,09,03,44,2.00
2011,06,09,03,45,1.00
2011,06,09,03,49,1.40
2011,06,09,03,50,2.00
2011,06,09,03,51,0.30
2011,06,09,03,52,1.90
2011,06,09,03,53,1.00
2011,06,09,03,54,0.30
2011,06,09,03,55,1.50
2011,06,09,03,56,2.10
2011,06,09,03,57,0.60
2011,06,09,03,58,0.10
2011,06,09,03,59,1.20
2011,06,09,04,00,0.10
2011,06,09,04,01,0.90
2011,06,09,04,02,0.70
2011,06,09,04,03,0.20
2011,06,09,04,04,0.10
2011,06,09,04,05,0.00
2011,06,09,04,06,0.20
2011,06,09,04,07,0.60
2011,06,09,04,08,1.60
2011,06,09,04,09,1.50
2011,06,09,04,10,1.20
2011,06,09,04,11,1.50
2011,06,09,04,12,0.20
2011,06,09,04,13,0.00
2011,06,09,04,14,0.00
2011,06,09,04,15,0.00
2011,06,09,04,16,0.00
2011,06,09,04,17,0.00
2011,06,09,04,18,0.00
2011,06,09,04,19,0.00
2011,06,09,04,20,0.00
2011,06,09,04,21,0.00
2011,06,09,04,22,0.00
2011,06,09,04,23,0.00
2011,06,09,04,24,0.00
2011,06,09,04,25,0.00
2011,06,09,04,26,0.00
2011,06,09,04,27,0.00
2011,06,09,04,28,0.00
2011,06,09,04,29,0.00
2011,06,09,04,30,0.00
2011,06,09,04,31,0.00
2011,06,09,04,32,0.00
2011,06,09,04,33,0.00
2011,06,09,04,34,0.00
2011,06,09,04,35,0.80
2011,06,09,04,36,0.10
2011,06,09,04,37,0.00
2011,06,09,04,38,0.00
2011,06,09,04,39,0.00
2011,06,09,04,40,0.00
2011,06,09,04,41,0.00
2011,06,09,04,42,0.70
2011,06,09,04,43,0.00
2011,06,09,04,44,0.00
2011,06,09,04,45,0.00
2011,06,09,04,46,0.30
2011,06,09,04,47,0.10
2011,06,09,04,48,0.00
2011,06,09,04,49,0.00
2011,06,09,04,50,0.00
2011,06,09,04,51,0.10
2011,06,09,04,52,0.00
2011,06,09,04,53,0.00
2011,06,09,04,54,0.00
2011,06,09,04,55,0.90
2011,06,09,04,56,0.50
2011,06,09,04,57,0.10
2011,06,09,04,58,0.10
2011,06,09,04,59,0.00
2011,06,09,05,00,0.60
2011,06,09,05,01,0.20
2011,06,09,05,02,0.40
2011,06,09,05,03,0.10
2011,06,09,05,04,0.00
2011,06,09,05,05,0.00
2011,06,09,05,06,0.00
2011,06,09,05,07,0.00
2011,06,09,05,08,0.00
2011,06,09,05,09,0.00
2011,06,09,05,10,0.10
2011,06,09,05,11,0.00
2011,06,09,05,12,0.00
2011,06,09,05,13,0.00
2011,06,09,05,14,0.00
2011,06,09,05,15,0.00
2011,06,09,05,16,0.00
2011,06,09,05,17,0.00
2011,06,09,05,18,0.00
2011,06,09,05,19,0.00
2011,06,09,05,20,0.00
2011,06,09,05,21,0.00
2011,06,09,05,22,0.00
2011,06,09,05,23,0.00
2011,06,09,05,24,0.00
2011,06,09,05,25,0.00
2011,06,09,05,26,0.00
2011,06,09,05,27,0.60
2011,06,09,05,28,0.00
2011,06,09,05,29,0.00
2011,06,09,05,30,0.70
2011,06,09,05,31,1.20
2011,06,09,05,32,0.10
2011,06,09,05,33,0.00
2011,06,09,05,34,0.00
2011,06,09,05,35,0.50
2011,06,09,05,36,1.30
2011,06,09,05,37,0.00
2011,06,09,05,38,0.60
2011,06,09,05,39,0.40
2011,06,09,05,40,0.00
2011,06,09,05,41,0.00
2011,06,09,05,42,0.00
2011,06,09,05,43,0.00
2011,06,09,05,44,0.10
2011,06,09,05,45,0.00
2011,06,09,05,46,0.00
2011,06,09,05,47,0.00
2011,06,09,05,48,0.00
2011,06,09,05,49,0.00
2011,06,09,05,50,0.40
2011,06,09,05,51,0.70
2011,06,09,05,52,0.00
2011,06,09,05,53,0.00
2011,06,09,05,54,0.30
2011,06,09,05,55,1.20
2011,06,09,05,56,0.20
2011,06,09,05,57,0.30
2011,06,09,05,58,0.10
2011,06,09,05,59,0.60
2011,06,09,06,00,0.00
2011,06,09,06,01,0.00
2011,06,09,06,02,0.00
2011,06,09,06,03,0.30
2011,06,09,06,04,0.10
2011,06,09,06,05,0.00
2011,06,09,06,06,0.10
2011,06,09,06,07,0.00
2011,06,09,06,08,0.10
2011,06,09,06,09,0.10
2011,06,09,06,10,0.20
2011,06,09,06,11,0.00
2011,06,09,06,12,0.00
2011,06,09,06,13,0.00
2011,06,09,06,14,0.00
2011,06,09,06,15,0.00
2011,06,09,06,16,0.00
2011,06,09,06,17,0.00
2011,06,09,06,18,0.00
2011,06,09,06,19,0.00
2011,06,09,06,20,0.00
2011,06,09,06,21,0.00
2011,06,09,06,22,0.00
2011,06,09,06,23,0.00
2011,06,09,06,24,0.00
2011,06,09,06,25,0.00
2011,06,09,06,26,0.00
2011,06,09,06,27,0.00
2011,06,09,06,28,0.00
2011,06,09,06,29,0.00
2011,06,09,06,30,0.00
2011,06,09,06,31,0.00
2011,06,09,06,32,0.00
2011,06,09,06,33,0.00
2011,06,09,06,34,0.00
2011,06,09,06,35,0.00
2011,06,09,06,36,0.00
2011,06,09,06,37,0.00
2011,06,09,06,38,0.00
2011,06,09,06,39,0.00
2011,06,09,06,40,0.00
2011,06,09,06,41,0.00
2011,06,09,06,42,0.00
2011,06,09,06,43,0.00
2011,06,09,06,44,0.00
2011,06,09,06,45,0.00
2011,06,09,06,46,0.00
2011,06,09,06,47,0.00
2011,06,09,06,48,0.00
2011,06,09,06,49,0.00
2011,06,09,06,50,0.00
2011,06,09,06,51,0.00
2011,06,09,06,52,0.60
2011,06,09,06,53,0.60
2011,06,09,06,54,0.00
2011,06,09,06,55,0.00
2011,06,09,06,56,0.20
2011,06,09,06,57,0.00
2011,06,09,06,58,0.60
2011,06,09,06,59,0.00
2011,06,09,07,00,0.00
2011,06,09,07,01,0.00
2011,06,09,07,02,0.00
2011,06,09,07,03,0.00
2011,06,09,07,04,0.00
2011,06,09,07,05,0.00
2011,06,09,07,06,0.00
2011,06,09,07,07,0.00
2011,06,09,07,08,0.00
2011,06,09,07,09,0.00
2011,06,09,07,10,0.00
2011,06,09,07,11,0.00
2011,06,09,07,12,0.00
2011,06,09,07,13,0.00
2011,06,09,07,14,0.00
2011,06,09,07,15,0.00
2011,06,09,07,16,0.00
2011,06,09,07,17,0.00
2011,06,09,07,18,0.00
2011,06,09,07,19,0.00
2011,06,09,07,20,0.00
2011,06,09,07,21,0.00
2011,06,09,07,22,0.00
2011,06,09,07,23,0.00
2011,06,09,07,24,0.00
2011,06,09,07,25,0.00
2011,06,09,07,26,0.00
2011,06,09,07,27,0.00
2011,06,09,07,28,0.00
2011,06,09,07,29,0.00
2011,06,09,07,30,0.00
2011,06,09,07,31,0.00
2011,06,09,07,32,0.10
2011,06,09,07,33,0.30
2011,06,09,07,34,0.00
2011,06,09,07,35,0.10
2011,06,09,07,36,0.00
2011,06,09,07,37,0.00
2011,06,09,07,38,0.00
2011,06,09,07,39,0.00
2011,06,09,07,40,0.00
2011,06,09,07,41,0.00
2011,06,09,07,42,0.00
2011,06,09,07,43,0.00
2011,06,09,07,44,0.00
2011,06,09,07,45,0.00
2011,06,09,07,46,0.00
2011,06,09,07,47,0.00
2011,06,09,07,48,0.00
2011,06,09,07,49,0.00
2011,06,09,07,50,0.00
2011,06,09,07,51,0.00
2011,06,09,07,52,0.00
2011,06,09,07,53,0.10
2011,06,09,07,54,0.90
2011,06,09,07,55,0.20
2011,06,09,07,56,0.50
2011,06,09,07,57,0.40
2011,06,09,07,58,0.90
2011,06,09,07,59,0.80
2011,06,09,08,00,1.50
2011,06,09,08,01,0.90
2011,06,09,08,02,0.40
2011,06,09,08,03,0.50
2011,06,09,08,04,0.40
2011,06,09,08,05,0.20
2011,06,09,08,06,0.10
2011,06,09,08,07,0.00
2011,06,09,08,08,0.00
2011,06,09,08,09,0.10
2011,06,09,08,10,0.10
2011,06,09,08,11,0.10
2011,06,09,08,12,0.20
2011,06,09,08,13,0.90
2011,06,09,08,14,0.20
2011,06,09,08,15,0.30
2011,06,09,08,16,0.30
2011,06,09,08,17,0.00
2011,06,09,08,18,0.20
2011,06,09,08,19,1.40
2011,06,09,08,20,2.20
2011,06,09,08,21,1.70
2011,06,09,08,22,1.60
2011,06,09,08,23,0.80
2011,06,09,08,24,0.60
2011,06,09,08,25,1.20
2011,06,09,08,26,0.20
2011,06,09,08,27,0.60
2011,06,09,08,28,1.10
2011,06,09,08,29,0.10
2011,06,09,08,30,0.60
2011,06,09,08,31,0.00
2011,06,09,08,32,0.10
2011,06,09,08,33,0.40
2011,06,09,08,34,0.20
2011,06,09,08,35,1.70
2011,06,09,08,36,0.50
2011,06,09,08,37,1.00
2011,06,09,08,38,0.90
2011,06,09,08,39,1.30
2011,06,09,08,40,1.20
2011,06,09,08,41,0.20
2011,06,09,08,42,0.30
2011,06,09,08,43,0.10
2011,06,09,08,44,1.00
2011,06,09,08,45,0.30
2011,06,09,08,46,1.40
2011,06,09,08,47,1.40
2011,06,09,08,48,1.40
2011,06,09,08,49,0.40
2011,06,09,08,50,0.20
2011,06,09,08,51,0.10
2011,06,09,08,52,0.00
2011,06,09,08,53,1.30
2011,06,09,08,54,0.60
2011,06,09,08,55,0.50
2011,06,09,08,56,0.60
2011,06,09,08,57,1.10
2011,06,09,08,58,0.60
2011,06,09,08,59,0.10
2011,06,09,09,00,0.30
2011,06,09,09,01,0.80
2011,06,09,09,02,0.60
2011,06,09,09,03,0.20
2011,06,09,09,04,0.60
2011,06,09,09,05,0.00
2011,06,09,09,06,0.30
2011,06,09,09,07,0.80
2011,06,09,09,08,0.20
2011,06,09,09,09,1.10
2011,06,09,09,10,1.10
2011,06,09,09,11,1.00
2011,06,09,09,12,5.20
2011,06,09,09,13,5.60
2011,06,09,09,14,2.70
2011,06,09,09,15,0.40
2011,06,09,09,16,1.00
2011,06,09,09,17,1.20
2011,06,09,09,18,0.40
2011,06,09,09,19,1.00
2011,06,09,09,20,2.10
2011,06,09,09,21,2.70
2011,06,09,09,22,1.70
2011,06,09,09,23,1.50
2011,06,09,09,24,1.90
2011,06,09,09,25,0.20
2011,06,09,09,26,1.60
2011,06,09,09,27,1.20
2011,06,09,09,28,1.70
2011,06,09,09,29,2.10
2011,06,09,09,30,3.00
2011,06,09,09,31,2.70
2011,06,09,09,32,1.40
2011,06,09,09,33,1.40
2011,06,09,09,34,1.20
2011,06,09,09,35,1.90
2011,06,09,09,36,2.60
2011,06,09,09,37,0.60
2011,06,09,09,38,3.90
2011,06,09,09,39,4.80
2011,06,09,09,40,1.90
2011,06,09,09,41,5.40
2011,06,09,09,42,5.70
2011,06,09,09,43,1.90
2011,06,09,09,44,2.30
2011,06,09,09,45,1.80
2011,06,09,09,46,1.90
2011,06,09,09,47,0.50
2011,06,09,09,48,1.40
2011,06,09,09,49,7.20
2011,06,09,09,50,5.80
2011,06,09,09,51,3.50
2011,06,09,09,52,3.40
2011,06,09,09,53,7.70
2011,06,09,09,54,7.10
2011,06,09,09,55,7.80
2011,06,09,09,56,8.90
2011,06,09,09,57,5.90
2011,06,09,09,58,2.20
2011,06,09,09,59,6.40
2011,06,09,10,00,3.80
2011,06,09,10,01,8.10
2011,06,09,10,02,5.60
2011,06,09,10,03,6.60
2011,06,09,10,04,7.20
2011,06,09,10,05,3.90
2011,06,09,10,06,6.60
2011,06,09,10,07,1.80
2011,06,09,10,08,7.00
2011,06,09,10,09,3.50
2011,06,09,10,10,1.90
2011,06,09,10,11,1.70
2011,06,09,10,12,3.80
2011,06,09,10,13,2.20
2011,06,09,10,14,2.10
2011,06,09,10,15,2.30
2011,06,09,10,16,2.70
2011,06,09,10,17,1.80
2011,06,09,10,18,3.20
2011,06,09,10,19,1.70
2011,06,09,10,20,3.20
2011,06,09,10,21,3.20
2011,06,09,10,22,2.30
2011,06,09,10,23,1.00
2011,06,09,10,24,1.20
2011,06,09,10,25,0.60
2011,06,09,10,26,1.50
2011,06,09,10,27,4.80
2011,06,09,10,28,3.40
2011,06,09,10,29,4.10
2011,06,09,10,30,2.40
2011,06,09,10,31,4.20
2011,06,09,10,32,2.90
2011,06,09,10,33,2.90
2011,06,09,10,34,2.60
2011,06,09,10,35,2.20
2011,06,09,10,36,1.00
2011,06,09,10,37,0.60
2011,06,09,10,38,0.20
2011,06,09,10,39,1.10
2011,06,09,10,40,3.50
2011,06,09,10,41,1.10
2011,06,09,10,42,1.50
2011,06,09,10,43,3.50
2011,06,09,10,44,2.30
2011,06,09,10,45,4.50
2011,06,09,10,46,3.40
2011,06,09,10,47,1.90
2011,06,09,10,48,2.90
2011,06,09,10,49,3.70
2011,06,09,10,50,2.80
2011,06,09,10,51,2.70
2011,06,09,10,52,0.80
2011,06,09,10,53,5.60
2011,06,09,10,54,2.80
2011,06,09,10,55,3.90
2011,06,09,10,56,5.00
2011,06,09,10,57,2.00
2011,06,09,10,58,1.00
2011,06,09,10,59,2.80
2011,06,09,11,00,7.50
2011,06,09,11,01,7.20
2011,06,09,11,02,2.40
2011,06,09,11,03,2.00
2011,06,09,11,04,2.60
2011,06,09,11,05,3.10
2011,06,09,11,06,6.80
2011,06,09,11,07,6.80
2011,06,09,11,08,7.30
2011,06,09,11,09,7.90
2011,06,09,11,10,5.40
2011,06,09,11,11,0.30
2011,06,09,11,12,2.80
2011,06,09,11,13,3.90
2011,06,09,11,14,3.10
2011,06,09,11,15,1.30
2011,06,09,11,16,2.80
2011,06,09,11,17,5.60
2011,06,09,11,18,7.00
2011,06,09,11,19,8.20
2011,06,09,11,20,6.10
2011,06,09,11,21,7.40
2011,06,09,11,22,9.20
2011,06,09,11,23,4.30
2011,06,09,11,24,0.70
2011,06,09,11,25,2.50
2011,06,09,11,26,1.90
2011,06,09,11,27,2.40
2011,06,09,11,28,1.00
2011,06,09,11,29,5.00
2011,06,09,11,30,3.50
2011,06,09,11,31,3.80
2011,06,09,11,32,2.50
2011,06,09,11,33,2.00
2011,06,09,11,34,1.70
2011,06,09,11,35,3.10
2011,06,09,11,36,5.10
2011,06,09,11,37,3.50
2011,06,09,11,38,4.70
2011,06,09,11,39,3.50
2011,06,09,11,40,2.70
2011,06,09,11,41,2.30
2011,06,09,11,42,3.20
2011,06,09,11,43,3.20
2011,06,09,11,44,2.60
2011,06,09,11,45,1.80
2011,06,09,11,46,0.80
2011,06,09,11,47,2.20
2011,06,09,11,48,4.70
2011,06,09,11,49,5.60
2011,06,09,11,50,3.40
2011,06,09,11,51,4.00
2011,06,09,11,52,2.20
2011,06,09,11,53,1.30
2011,06,09,11,54,1.50
2011,06,09,11,55,1.00
2011,06,09,11,56,1.50
2011,06,09,11,57,3.50
2011,06,09,11,58,6.90
2011,06,09,11,59,4.90
2011,06,09,12,00,0.60
2011,06,09,12,01,2.50
2011,06,09,12,02,2.00
2011,06,09,12,03,1.90
2011,06,09,12,04,2.30
2011,06,09,12,05,2.30
2011,06,09,12,06,1.90
2011,06,09,12,07,3.60
2011,06,09,12,08,2.40
2011,06,09,12,09,3.50
2011,06,09,12,10,2.90
2011,06,09,12,11,3.50
2011,06,09,12,12,3.70
2011,06,09,12,13,3.20
2011,06,09,12,14,3.20
2011,06,09,12,15,7.00
2011,06,09,12,16,6.30
2011,06,09,12,17,5.30
2011,06,09,12,18,4.70
2011,06,09,12,19,8.60
2011,06,09,12,20,6.30
2011,06,09,12,21,6.70
2011,06,09,12,22,6.90
2011,06,09,12,23,4.90
2011,06,09,12,24,7.60
2011,06,09,12,25,7.20
2011,06,09,12,26,5.70
2011,06,09,12,27,5.50
2011,06,09,12,28,7.60
2011,06,09,12,29,6.60
2011,06,09,12,30,7.60
2011,06,09,12,31,6.70
2011,06,09,12,32,8.20
2011,06,09,12,33,8.90
2011,06,09,12,34,9.70
2011,06,09,12,35,6.90
2011,06,09,12,36,7.40
2011,06,09,12,37,6.70
2011,06,09,12,38,6.60
2011,06,09,12,39,6.10
2011,06,09,12,40,6.70
2011,06,09,12,41,7.70
2011,06,09,12,42,7.40
2011,06,09,12,43,5.40
2011,06,09,12,44,6.40
2011,06,09,12,45,8.30
2011,06,09,12,46,8.20
2011,06,09,12,47,8.60
2011,06,09,12,48,7.70
2011,06,09,12,49,6.10
2011,06,09,12,50,7.70
2011,06,09,12,51,7.00
2011,06,09,12,52,8.00
2011,06,09,12,53,6.60
2011,06,09,12,54,7.50
2011,06,09,12,55,8.50
2011,06,09,12,56,5.50
2011,06,09,12,57,10.40
2011,06,09,12,58,10.00
2011,06,09,12,59,9.50
2011,06,09,13,00,9.10
2011,06,09,13,01,12.70
2011,06,09,13,02,8.20
2011,06,09,13,03,12.50
2011,06,09,13,04,10.00
2011,06,09,13,05,10.50
2011,06,09,13,06,13.70
2011,06,09,13,07,7.20
2011,06,09,13,08,7.20
2011,06,09,13,09,8.10
2011,06,09,13,10,11.10
2011,06,09,13,11,5.80
2011,06,09,13,12,4.80
2011,06,09,13,13,6.60
2011,06,09,13,14,9.10
2011,06,09,13,15,9.30
2011,06,09,13,16,11.90
2011,06,09,13,17,10.40
2011,06,09,13,18,15.40
2011,06,09,13,19,12.20
2011,06,09,13,20,11.30
2011,06,09,13,21,11.80
2011,06,09,13,22,11.30
2011,06,09,13,23,10.50
2011,06,09,13,24,11.60
2011,06,09,13,25,9.10
2011,06,09,13,26,8.10
2011,06,09,13,27,7.00
2011,06,09,13,28,6.80
2011,06,09,13,29,8.40
2011,06,09,13,30,12.20
2011,06,09,13,31,7.70
2011,06,09,13,32,6.30
2011,06,09,13,33,9.90
2011,06,09,13,34,7.00
2011,06,09,13,35,8.20
2011,06,09,13,36,12.50
2011,06,09,13,37,13.00
2011,06,09,13,38,11.30
2011,06,09,13,39,11.70
2011,06,09,13,40,10.60
2011,06,09,13,41,12.90
2011,06,09,13,42,5.50
2011,06,09,13,43,5.60
2011,06,09,13,44,6.00
2011,06,09,13,45,6.80
2011,06,09,13,46,9.70
2011,06,09,13,47,7.30
2011,06,09,13,48,3.40
2011,06,09,13,49,8.00
2011,06,09,13,50,6.90
2011,06,09,13,51,8.30
2011,06,09,13,52,7.20
2011,06,09,13,53,4.40
2011,06,09,13,54,5.80
2011,06,09,13,55,9.70
2011,06,09,13,56,4.40
2011,06,09,13,57,2.30
2011,06,09,13,58,5.70
2011,06,09,13,59,8.20
2011,06,09,14,00,8.60
2011,06,09,14,01,6.60
2011,06,09,14,02,9.30
2011,06,09,14,03,7.70
2011,06,09,14,04,7.50
2011,06,09,14,05,9.40
2011,06,09,14,06,7.90
2011,06,09,14,07,3.80
2011,06,09,14,08,2.90
2011,06,09,14,09,3.60
2011,06,09,14,10,3.50
2011,06,09,14,11,4.30
2011,06,09,14,12,7.20
2011,06,09,14,13,3.40
2011,06,09,14,14,7.40
2011,06,09,14,15,5.80
2011,06,09,14,16,8.40
2011,06,09,14,17,9.50
2011,06,09,14,18,8.20
2011,06,09,14,19,9.10
2011,06,09,14,20,8.90
2011,06,09,14,21,7.60
2011,06,09,14,22,3.50
2011,06,09,14,23,8.50
2011,06,09,14,24,8.90
2011,06,09,14,25,8.00
2011,06,09,14,26,4.60
2011,06,09,14,27,5.30
2011,06,09,14,28,10.90
2011,06,09,14,29,5.70
2011,06,09,14,30,7.50
2011,06,09,14,31,12.40
2011,06,09,14,32,8.80
2011,06,09,14,33,9.70
2011,06,09,14,34,6.80
2011,06,09,14,35,3.10
2011,06,09,14,36,4.70
2011,06,09,14,37,8.10
2011,06,09,14,38,10.60
2011,06,09,14,39,5.50
2011,06,09,14,40,7.10
2011,06,09,14,41,6.80
2011,06,09,14,42,5.20
2011,06,09,14,43,4.80
2011,06,09,14,44,8.10
2011,06,09,14,45,7.50
2011,06,09,14,46,7.20
2011,06,09,14,47,8.50
2011,06,09,14,48,7.60
2011,06,09,14,49,7.20
2011,06,09,14,50,4.60
2011,06,09,14,51,8.30
2011,06,09,14,52,7.70
2011,06,09,14,53,6.40
2011,06,09,14,54,6.00
2011,06,09,14,55,8.30
2011,06,09,14,56,6.40
2011,06,09,14,57,5.60
2011,06,09,14,58,7.40
2011,06,09,14,59,5.50
2011,06,09,15,00,6.80
2011,06,09,15,01,6.00
2011,06,09,15,02,5.10
2011,06,09,15,03,3.70
2011,06,09,15,04,7.00
2011,06,09,15,05,7.60
2011,06,09,15,06,3.80
2011,06,09,15,07,1.00
2011,06,09,15,08,2.70
2011,06,09,15,09,5.20
2011,06,09,15,10,4.40
2011,06,09,15,11,1.90
2011,06,09,15,12,4.90
2011,06,09,15,13,5.20
2011,06,09,15,14,1.60
2011,06,09,15,15,3.50
2011,06,09,15,16,2.30
2011,06,09,15,17,3.10
2011,06,09,15,18,5.40
2011,06,09,15,19,3.70
2011,06,09,15,20,5.40
2011,06,09,15,21,4.90
2011,06,09,15,22,6.00
2011,06,09,15,23,5.50
2011,06,09,15,24,5.60
2011,06,09,15,25,4.30
2011,06,09,15,26,2.70
2011,06,09,15,27,4.70
2011,06,09,15,28,4.40
2011,06,09,15,29,7.30
2011,06,09,15,30,5.50
2011,06,09,15,31,3.00
2011,06,09,15,32,3.90
2011,06,09,15,33,4.00
2011,06,09,15,34,5.20
2011,06,09,15,35,3.50
2011,06,09,15,36,5.10
2011,06,09,15,37,6.80
2011,06,09,15,38,6.50
2011,06,09,15,39,6.30
2011,06,09,15,40,5.50
2011,06,09,15,41,4.40
2011,06,09,15,42,6.20
2011,06,09,15,43,4.00
2011,06,09,15,44,7.20
2011,06,09,15,45,3.30
2011,06,09,15,46,5.60
2011,06,09,15,47,6.70
2011,06,09,15,48,7.40
2011,06,09,15,49,6.10
2011,06,09,15,50,6.00
2011,06,09,15,51,6.00
2011,06,09,15,52,3.80
2011,06,09,15,53,6.20
2011,06,09,15,54,6.40
2011,06,09,15,55,4.60
2011,06,09,15,56,7.20
2011,06,09,15,57,4.00
2011,06,09,15,58,6.00
2011,06,09,15,59,7.20
2011,06,09,16,00,5.10
2011,06,09,16,01,5.40
2011,06,09,16,02,5.20
2011,06,09,16,03,4.80
2011,06,09,16,04,6.00
2011,06,09,16,05,6.40
2011,06,09,16,06,8.10
2011,06,09,16,07,5.90
2011,06,09,16,08,5.60
2011,06,09,16,09,2.70
2011,06,09,16,10,3.10
2011,06,09,16,11,7.20
2011,06,09,16,12,2.10
2011,06,09,16,13,4.60
2011,06,09,16,14,7.20
2011,06,09,16,15,5.70
2011,06,09,16,16,6.40
2011,06,09,16,17,4.60
2011,06,09,16,18,7.20
2011,06,09,16,19,5.40
2011,06,09,16,20,6.40
2011,06,09,16,21,3.50
2011,06,09,16,22,6.30
2011,06,09,16,23,6.80
2011,06,09,16,24,7.40
2011,06,09,16,25,5.90
2011,06,09,16,26,4.40
2011,06,09,16,27,4.90
2011,06,09,16,28,5.00
2011,06,09,16,29,5.70
2011,06,09,16,30,6.50
2011,06,09,16,31,4.10
2011,06,09,16,32,4.30
2011,06,09,16,33,6.40
2011,06,09,16,34,6.80
2011,06,09,16,35,4.70
2011,06,09,16,36,5.10
2011,06,09,16,37,2.80
2011,06,09,16,38,4.30
2011,06,09,16,39,4.50
2011,06,09,16,40,5.60
2011,06,09,16,41,4.00
2011,06,09,16,42,4.60
2011,06,09,16,43,5.60
2011,06,09,16,44,6.30
2011,06,09,16,45,5.70
2011,06,09,16,46,2.90
2011,06,09,16,47,0.90
2011,06,09,16,48,3.00
2011,06,09,16,49,2.20
2011,06,09,16,50,3.40
2011,06,09,16,51,3.50
2011,06,09,16,52,3.60
2011,06,09,16,53,6.30
2011,06,09,16,54,2.70
2011,06,09,16,55,4.00
2011,06,09,16,56,0.70
2011,06,09,16,57,2.30
2011,06,09,16,58,3.20
2011,06,09,16,59,4.80
2011,06,09,17,00,5.20
2011,06,09,17,01,4.60
2011,06,09,17,02,1.60
2011,06,09,17,03,4.90
2011,06,09,17,04,5.60
2011,06,09,17,05,4.10
2011,06,09,17,06,2.50
2011,06,09,17,07,2.70
2011,06,09,17,08,3.90
2011,06,09,17,09,2.40
2011,06,09,17,10,1.10
2011,06,09,17,11,0.10
2011,06,09,17,12,0.60
2011,06,09,17,13,2.60
2011,06,09,17,14,2.80
2011,06,09,17,15,1.80
2011,06,09,17,16,4.10
2011,06,09,17,17,4.60
2011,06,09,17,18,2.10
2011,06,09,17,19,2.60
2011,06,09,17,20,4.80
2011,06,09,17,21,3.80
2011,06,09,17,22,3.10
2011,06,09,17,23,2.90
2011,06,09,17,24,2.00
2011,06,09,17,25,1.90
2011,06,09,17,26,2.00
2011,06,09,17,27,1.20
2011,06,09,17,28,3.40
2011,06,09,17,29,4.70
2011,06,09,17,30,2.70
2011,06,09,17,31,5.00
2011,06,09,17,32,5.80
2011,06,09,17,33,3.00
2011,06,09,17,34,3.00
2011,06,09,17,35,1.50
2011,06,09,17,36,0.60
2011,06,09,17,37,0.20
2011,06,09,17,38,0.40
2011,06,09,17,39,0.10
2011,06,09,17,40,0.80
2011,06,09,17,41,0.00
2011,06,09,17,42,1.60
2011,06,09,17,43,0.10
2011,06,09,17,44,1.50
2011,06,09,17,45,1.10
2011,06,09,17,46,3.40
2011,06,09,17,47,2.10
2011,06,09,17,48,0.30
2011,06,09,17,49,0.30
2011,06,09,17,50,0.60
2011,06,09,17,51,0.00
2011,06,09,17,52,0.00
2011,06,09,17,53,0.00
2011,06,09,17,54,0.00
2011,06,09,17,55,0.20
2011,06,09,17,56,1.80
2011,06,09,17,57,4.10
2011,06,09,17,58,3.20
2011,06,09,17,59,1.50
2011,06,09,18,00,1.00
2011,06,09,18,01,1.50
2011,06,09,18,02,1.00
2011,06,09,18,03,1.40
2011,06,09,18,04,0.40
2011,06,09,18,05,0.20
2011,06,09,18,06,0.40
2011,06,09,18,07,0.50
2011,06,09,18,08,0.00